Hourly Data Report for May 23, 2021

WIARTON A
ONTARIO
Current Station Operator: NAVCAN

44°44'39.000" N
81°06'31.000" W
221.90 m
6119499
71633
YVV

Download Data

Hourly Data (May 2021)
Hourly Data Report for May 23, 2021
TIME
LST
Temp Definition
°C
Dew Point Definition
°C
Rel Hum Definition
%
Precip. Amount Definition
mm

Wind Dir Definition
10's deg

Wind Spd Definition
km/h
Visibility Definition
km
Stn Press Definition
kPa
Hmdx Definition


Wind Chill Definition


Weather Definition


00:00 15.6 15.5 99   29 5 3.2 99.30     Fog
01:00 15.0 14.8 98   0 1 9.7 99.23     Fog
02:00 14.4 13.9 97   21 10 16.1 99.15     LegendNANA
03:00 14.4 13.8 96   19 10 19.3 99.12     LegendNANA
04:00 14.4 13.9 97   21 9 19.3 99.10     Mainly Clear
05:00 15.0 14.5 97   22 7 19.3 99.10     LegendNANA
06:00 15.1 14.7 97   26 5 3.2 99.20     Fog
07:00 13.2 12.6 96   1 16 12.9 99.29     Cloudy
08:00 10.0 8.6 91   2 18 24.1 99.41     LegendNANA
09:00 9.2 7.8 91   4 15 9.7 99.51     Drizzle
10:00 9.4 7.1 86   4 23 24.1 99.57     Cloudy
11:00 9.7 5.8 76   4 27 24.1 99.64     LegendNANA
12:00 11.4 6.4 71   4 24 24.1 99.65     LegendNANA
13:00 11.9 6.4 69   4 17 24.1 99.65     Mostly Cloudy
14:00 12.9 6.0 63   4 22 24.1 99.66     LegendNANA
15:00 13.6 5.7 59   3 16 24.1 99.63     LegendNANA
16:00 14.4 5.8 56   4 20 24.1 99.59     Mostly Cloudy
17:00 14.2 3.8 49   4 23 24.1 99.59     LegendNANA
18:00 14.5 4.3 50   3 13 24.1 99.62     LegendNANA
19:00 13.1 3.0 50   3 13 24.1 99.63     Mostly Cloudy
20:00 12.6 1.5 47   4 17 24.1 99.68     LegendNANA
21:00 11.2 1.8 52   5 14 24.1 99.71     LegendNANA
22:00 11.6 1.3 49   5 20 24.1 99.72     Mainly Clear
23:00 11.0 1.4 52   6 14 24.1 99.75     LegendNANA

Notes on Data Quality.

Legend

  • E = Estimated
  • M = Missing
  • NA = Not Available*
  • [empty] = Indicates an unobserved value
Date modified: